Location: Pilipovskiye Korichintsy
(49.1833°N, 27.4667°E)
Time: 22:34:36
(UTC+00:00)

Cosmos 1140 Rocket - Pass Details

Date: 14 July 2020
Orbit: 744 x 768 km, 74.1° (Epoch: 10 August)

Event Time Altitude Azimuth Distance (km) Brightness Sun altitude
Exits shadow 00:52:14 15° 226° (SW) 1,984 5.0 -11.1°
Maximum altitude 00:56:27 51° 299° (WNW) 964 4.0 -10.7°
Drops below altitude 10° 01:01:34 10° 15° (NNE) 2,315 7.2 -10.2°
Sets 01:04:02 0° 21° (NNE) 3,248 8.4 -9.9°
